When you browse on this site, cookies collect data to enhance your experience and personalize the content and advertising you see.
Visit our Privacy Policy to learn more. By continuing to use the site, you agree to this use of cookies and data.
  • In Austria
  • List of Countries
  • For 7 days
  • Water Temperature
  • Satellite Maps
  • Weather Map
  • News
  • Weather Widgets
  • user-avatar
    Login

    Hourly Weather Carmen

    Today, 14 December, Friday

    Time Temperature Precipitation Wind Pressure Humidity
    00:00 +24°C° 0 mm 3 mps 758 mmHg 82%
    01:00 +24°C° 0 mm 3 mps 758 mmHg 83%
    02:00 +22°C° 0 mm 3 mps 758 mmHg 84%
    03:00 +22°C° 0 mm 3 mps 758 mmHg 86%
    04:00 +22°C° 0 mm 3 mps 759 mmHg 87%
    05:00 +22°C° 0 mm 3 mps 759 mmHg 89%
    06:00 +21°C° 0 mm 2 mps 759 mmHg 90%
    07:00 +24°C° 0 mm 2 mps 760 mmHg 85%
    08:00 +26°C° 0 mm 2 mps 761 mmHg 81%
    09:00 +27°C° 0 mm 2 mps 761 mmHg 76%
    10:00 +27°C° 0.3 mm 4 mps 761 mmHg 78%
    11:00 +28°C° 0.3 mm 5 mps 761 mmHg 80%
    12:00 +28°C° 0.3 mm 7 mps 762 mmHg 82%
    13:00 +27°C° 0.5 mm 8 mps 762 mmHg 84%
    14:00 +24°C° 0.5 mm 9 mps 761 mmHg 87%
    15:00 +23°C° 0.5 mm 10 mps 761 mmHg 89%
    16:00 +23°C° 0.1 mm 9 mps 762 mmHg 86%
    17:00 +22°C° 0.1 mm 9 mps 763 mmHg 83%
    18:00 +22°C° 0.1 mm 8 mps 763 mmHg 80%
    19:00 +22°C° 0.1 mm 8 mps 764 mmHg 79%
    20:00 +22°C° 0.1 mm 8 mps 765 mmHg 79%
    21:00 +22°C° 0.1 mm 7 mps 766 mmHg 78%
    22:00 +21°C° 0.2 mm 7 mps 766 mmHg 80%
    23:00 +21°C° 0.2 mm 6 mps 766 mmHg 82%

    Tomorrow, 15 December, Saturday

    Time Temperature Precipitation Wind Pressure Humidity
    00:00 +20°C° 0.2 mm 6 mps 766 mmHg 84%
    01:00 +20°C° 0 mm 6 mps 766 mmHg 82%
    02:00 +21°C° 0 mm 5 mps 766 mmHg 80%
    03:00 +21°C° 0 mm 5 mps 766 mmHg 78%
    04:00 +21°C° 0 mm 5 mps 766 mmHg 77%
    05:00 +21°C° 0 mm 5 mps 766 mmHg 76%
    06:00 +21°C° 0 mm 4 mps 766 mmHg 75%
    07:00 +21°C° 0 mm 5 mps 766 mmHg 74%
    08:00 +22°C° 0 mm 5 mps 767 mmHg 72%
    09:00 +22°C° 0 mm 5 mps 768 mmHg 70%
    10:00 +23°C° 0 mm 5 mps 767 mmHg 65%
    11:00 +25°C° 0 mm 5 mps 767 mmHg 60%
    12:00 +26°C° 0 mm 5 mps 767 mmHg 56%
    13:00 +26°C° 0 mm 5 mps 767 mmHg 56%
    14:00 +26°C° 0 mm 5 mps 766 mmHg 56%
    15:00 +26°C° 0 mm 5 mps 765 mmHg 56%
    16:00 +23°C° 0 mm 4 mps 765 mmHg 59%
    17:00 +22°C° 0 mm 4 mps 766 mmHg 63%
    18:00 +21°C° 0 mm 4 mps 766 mmHg 66%
    19:00 +21°C° 0 mm 3 mps 766 mmHg 67%
    20:00 +20°C° 0 mm 3 mps 767 mmHg 68%
    21:00 +20°C° 0 mm 3 mps 767 mmHg 68%
    22:00 +20°C° 0 mm 3 mps 767 mmHg 69%
    23:00 +20°C° 0 mm 2 mps 767 mmHg 70%

    Day after tomorrow, 16 December, Sunday

    Time Temperature Precipitation Wind Pressure Humidity
    00:00 +19°C° 0 mm 2 mps 767 mmHg 72%
    01:00 +19°C° 0 mm 2 mps 767 mmHg 72%
    02:00 +19°C° 0 mm 2 mps 766 mmHg 73%
    03:00 +19°C° 0 mm 2 mps 766 mmHg 73%
    04:00 +19°C° 0 mm 2 mps 766 mmHg 73%
    05:00 +19°C° 0 mm 2 mps 767 mmHg 73%
    06:00 +19°C° 0 mm 2 mps 767 mmHg 73%
    07:00 +20°C° 0 mm 2 mps 767 mmHg 73%
    08:00 +21°C° 0 mm 2 mps 768 mmHg 72%
    09:00 +23°C° 0 mm 2 mps 768 mmHg 71%
    10:00 +23°C° 0 mm 2 mps 768 mmHg 70%
    11:00 +24°C° 0 mm 2 mps 767 mmHg 69%
    12:00 +24°C° 0 mm 2 mps 767 mmHg 67%
    13:00 +24°C° 0 mm 3 mps 766 mmHg 67%
    14:00 +25°C° 0 mm 3 mps 766 mmHg 67%
    15:00 +25°C° 0 mm 3 mps 765 mmHg 66%
    16:00 +24°C° 0 mm 3 mps 765 mmHg 68%
    17:00 +22°C° 0 mm 3 mps 765 mmHg 70%
    18:00 +22°C° 0 mm 3 mps 765 mmHg 72%
    19:00 +21°C° 0 mm 3 mps 766 mmHg 73%
    20:00 +21°C° 0 mm 2 mps 766 mmHg 73%
    21:00 +21°C° 0 mm 2 mps 767 mmHg 74%
    22:00 +20°C° 0 mm 2 mps 766 mmHg 75%
    23:00 +20°C° 0 mm 2 mps 766 mmHg 75%

    17 December, Monday

    Time Temperature Precipitation Wind Pressure Humidity
    00:00 +20°C° 0 mm 2 mps 766 mmHg 76%
    01:00 +20°C° 0 mm 2 mps 766 mmHg 77%
    02:00 +20°C° 0 mm 2 mps 765 mmHg 78%
    03:00 +20°C° 0 mm 2 mps 765 mmHg 79%
    04:00 +19°C° 0 mm 2 mps 765 mmHg 80%
    05:00 +19°C° 0 mm 2 mps 765 mmHg 80%
    06:00 +19°C° 0 mm 2 mps 765 mmHg 81%
    07:00 +21°C° 0 mm 2 mps 766 mmHg 77%
    08:00 +23°C° 0 mm 2 mps 767 mmHg 73%
    09:00 +24°C° 0 mm 1 mps 767 mmHg 68%
    10:00 +25°C° 0.1 mm 2 mps 767 mmHg 67%
    11:00 +25°C° 0.1 mm 2 mps 766 mmHg 66%
    12:00 +25°C° 0.1 mm 2 mps 766 mmHg 65%
    13:00 +24°C° 0.1 mm 3 mps 765 mmHg 70%
    14:00 +24°C° 0.1 mm 3 mps 765 mmHg 75%
    15:00 +22°C° 0.1 mm 4 mps 764 mmHg 80%
    16:00 +21°C° 0.1 mm 4 mps 764 mmHg 79%
    17:00 +21°C° 0.1 mm 3 mps 764 mmHg 78%
    18:00 +21°C° 0.1 mm 3 mps 765 mmHg 78%
    19:00 +20°C° 0 mm 2 mps 765 mmHg 79%
    20:00 +20°C° 0 mm 2 mps 765 mmHg 81%
    21:00 +21°C° 0 mm 1 mps 765 mmHg 83%
    22:00 +20°C° 0 mm 1 mps 765 mmHg 85%
    23:00 +20°C° 0 mm 1 mps 765 mmHg 88%

    18 December, Tuesday

    Time Temperature Precipitation Wind Pressure Humidity
    00:00 +19°C° 0 mm 1 mps 764 mmHg 91%
    01:00 +19°C° 0 mm 1 mps 764 mmHg 92%
    02:00 +19°C° 0 mm 1 mps 763 mmHg 93%
    03:00 +19°C° 0 mm 1 mps 763 mmHg 94%
    04:00 +19°C° 0 mm 1 mps 763 mmHg 93%
    05:00 +19°C° 0 mm 1 mps 763 mmHg 93%
    06:00 +19°C° 0 mm 1 mps 764 mmHg 93%
    07:00 +20°C° 0 mm 1 mps 764 mmHg 87%
    08:00 +22°C° 0 mm 1 mps 764 mmHg 81%
    09:00 +23°C° 0 mm 1 mps 765 mmHg 75%
    10:00 +25°C° 0 mm 1 mps 764 mmHg 71%
    11:00 +26°C° 0 mm 1 mps 764 mmHg 66%
    12:00 +27°C° 0 mm 1 mps 763 mmHg 61%
    13:00 +27°C° 0 mm 1 mps 762 mmHg 64%
    14:00 +26°C° 0 mm 1 mps 762 mmHg 67%
    15:00 +25°C° 0 mm 2 mps 761 mmHg 70%
    16:00 +25°C° 0 mm 2 mps 761 mmHg 73%
    17:00 +24°C° 0 mm 2 mps 761 mmHg 76%
    18:00 +23°C° 0 mm 2 mps 762 mmHg 79%
    19:00 +23°C° 0 mm 2 mps 762 mmHg 81%
    20:00 +23°C° 0 mm 2 mps 762 mmHg 82%
    21:00 +23°C° 0 mm 2 mps 763 mmHg 83%
    22:00 +21°C° 0 mm 2 mps 762 mmHg 85%
    23:00 +21°C° 0 mm 2 mps 762 mmHg 87%

    19 December, Wednesday

    Time Temperature Precipitation Wind Pressure Humidity
    00:00 +21°C° 0 mm 2 mps 761 mmHg 89%
    01:00 +20°C° 0 mm 2 mps 761 mmHg 90%
    02:00 +20°C° 0 mm 3 mps 761 mmHg 90%
    03:00 +20°C° 0 mm 3 mps 761 mmHg 91%
    04:00 +20°C° 0 mm 3 mps 761 mmHg 92%
    05:00 +20°C° 0 mm 3 mps 761 mmHg 93%
    06:00 +19°C° 0 mm 3 mps 761 mmHg 94%
    07:00 +21°C° 0 mm 3 mps 762 mmHg 88%
    08:00 +22°C° 0 mm 3 mps 762 mmHg 82%
    09:00 +24°C° 0 mm 3 mps 762 mmHg 76%
    10:00 +26°C° 0 mm 2 mps 762 mmHg 71%
    11:00 +27°C° 0 mm 2 mps 761 mmHg 65%
    12:00 +29°C° 0 mm 1 mps 761 mmHg 60%
    13:00 +29°C° 0 mm 2 mps 760 mmHg 60%
    14:00 +29°C° 0 mm 2 mps 759 mmHg 61%
    15:00 +29°C° 0 mm 2 mps 759 mmHg 62%
    16:00 +27°C° 0 mm 3 mps 759 mmHg 68%
    17:00 +26°C° 0 mm 3 mps 759 mmHg 75%
    18:00 +24°C° 0 mm 3 mps 760 mmHg 81%
    19:00 +24°C° 0 mm 3 mps 760 mmHg 83%
    20:00 +24°C° 0 mm 3 mps 761 mmHg 84%
    21:00 +24°C° 0 mm 3 mps 761 mmHg 86%
    22:00 +24°C° 0.2 mm 3 mps 761 mmHg 88%
    23:00 +22°C° 0.2 mm 3 mps 761 mmHg 90%
    Show more